DateTimeUTC,F1_A11,F1_S11,BsB_S11,BsG_S11,BsR_S11,BbsB_S11,BbsG_S11,BbsR_S11,BaB_A11,BaG_A11,BaR_A11,Tu_S11,T_S11,Uu_S11,U_S11,P_S11,T1_A11
2021-08-04T09:00:00Z,00000200,20000000,,,,,,,0000.24,-000.03,0000.13,17.0,24.0,03.4,02.2,0670.1,30.8
2021-08-04T09:01:00Z,00000200,20000000,,,,,,,0000.04,0000.28,0000.25,17.0,24.0,03.4,02.2,0670.1,30.9
2021-08-04T09:02:00Z,00000200,20000000,,,,,,,0000.09,-000.28,-000.36,17.0,24.0,03.4,02.2,0670.1,30.9
2021-08-04T09:03:00Z,00000200,60000000,,,,,,,0000.75,0000.94,0001.04,17.0,24.1,03.4,02.2,0670.1,30.9
2021-08-04T09:04:00Z,00000200,40000000,0001.24,0000.48,0000.50,-000.12,0000.07,0000.01,0000.54,0000.53,0000.57,17.3,24.0,03.9,02.6,0671.1,30.9
2021-08-04T09:05:00Z,00000200,00000000,0000.64,0000.59,0000.41,-000.07,0000.07,0000.06,0000.46,0000.54,0000.30,17.4,23.9,04.1,02.7,0671.1,30.9
2021-08-04T09:06:00Z,00000200,00000000,0001.76,0001.11,0000.45,-000.15,0000.12,-000.15,0000.73,0000.52,0000.75,17.4,23.9,04.3,02.9,0671.1,30.9
2021-08-04T09:07:00Z,00000200,00000000,0001.40,0000.92,0000.30,-000.08,0000.21,-000.25,0000.49,0000.38,0000.15,17.4,23.9,04.4,02.9,0671.1,30.9
2021-08-04T09:08:00Z,00000200,00000000,0001.56,0000.48,0000.37,0000.25,0000.28,0000.08,0000.26,0000.35,0000.03,17.3,23.8,04.5,03.0,0671.1,30.9
2021-08-04T09:09:00Z,00000200,00000000,0000.58,0000.50,0000.20,0000.61,-000.11,-000.13,0000.31,0000.29,0000.43,17.3,23.8,04.6,03.1,0671.1,30.8
2021-08-04T09:10:00Z,00000200,00000000,0000.37,0000.45,0000.47,-000.35,0000.34,0000.28,0000.23,0000.55,0000.27,17.3,23.8,04.7,03.2,0671.1,30.9
2021-08-04T09:11:00Z,00000200,00000000,-000.03,0000.19,-000.07,-000.20,0000.48,-000.10,0000.69,0000.16,0000.08,17.3,23.8,04.7,03.2,0671.1,30.8
2021-08-04T09:12:00Z,00000200,00000000,0001.06,0000.32,0000.19,-000.44,0000.13,-000.12,0000.15,0000.48,0000.40,17.3,23.8,04.7,03.2,0671.1,30.8
2021-08-04T09:13:00Z,00000200,00000000,0001.17,0000.15,0000.27,-000.05,0000.33,-000.04,0000.21,0000.10,0000.23,17.3,23.8,04.7,03.2,0671.1,30.8
2021-08-04T09:14:00Z,00000200,00000000,0000.92,0000.60,0000.36,-000.31,0000.44,-000.21,0000.57,0000.64,0000.63,17.3,23.8,04.9,03.3,0671.2,30.8
2021-08-04T09:15:00Z,00000200,00000000,0000.98,0000.52,0000.61,0000.29,0000.37,0000.12,0001.01,0000.63,0000.45,17.3,23.8,05.0,03.4,0671.2,30.8
2021-08-04T09:16:00Z,00000200,00000000,0001.46,0000.57,0000.47,-000.20,0000.05,-000.19,0000.28,0000.21,0000.56,17.4,23.8,05.1,03.4,0671.2,30.9
2021-08-04T09:17:00Z,00000200,00000000,0001.24,0000.91,0000.17,-000.41,0000.22,0000.12,0000.03,0000.27,0000.12,17.4,23.8,05.2,03.5,0671.2,30.9
2021-08-04T09:18:00Z,00000200,00000000,0001.51,0000.57,0000.09,-000.49,0000.39,0000.06,0000.89,0001.10,0000.62,17.5,23.8,05.3,03.6,0671.2,30.9
2021-08-04T09:19:00Z,00000200,00000000,0000.51,0000.42,0000.36,0000.22,0000.16,0000.17,0000.51,0000.08,0000.07,17.5,23.8,05.4,03.6,0671.2,30.9
2021-08-04T09:20:00Z,00000200,00000000,0001.40,0000.76,0000.38,0000.10,0000.01,0000.13,0000.15,0000.42,0000.52,17.5,23.8,05.5,03.7,0671.2,30.9
2021-08-04T09:21:00Z,00000200,00000000,0001.17,0000.58,0000.38,0000.28,0000.28,0000.30,0000.26,0000.26,0000.17,17.5,23.8,05.5,03.7,0671.2,30.9
2021-08-04T09:22:00Z,00000200,00000000,0000.30,0000.42,0000.36,0000.21,0000.08,-000.15,0000.11,0000.22,0000.01,17.4,23.8,05.5,03.7,0671.2,30.9
2021-08-04T09:23:00Z,00000200,00000000,0000.19,0000.32,0000.18,-000.46,0000.13,-000.16,0000.01,-000.30,-000.29,17.4,23.8,05.4,03.6,0671.2,30.9
2021-08-04T09:24:00Z,00000200,00000000,0000.99,0000.31,0000.24,0000.20,0000.39,-000.01,-000.03,0000.02,-000.20,17.4,23.8,05.1,03.5,0671.2,30.9
2021-08-04T09:25:00Z,00000200,00000000,0001.20,0000.78,0000.38,0000.82,0000.06,0000.17,0000.43,0000.42,0000.23,17.4,23.8,05.2,03.5,0671.2,30.8
2021-08-04T09:26:00Z,00000200,00000000,0001.07,0000.61,0000.15,0000.68,0000.15,0000.17,0000.22,-000.08,0000.27,17.4,23.8,05.1,03.4,0671.2,30.8
2021-08-04T09:27:00Z,00000200,00000000,0000.91,0000.75,0000.28,-000.20,0000.16,0000.04,-000.02,0000.07,0000.16,17.4,23.8,05.1,03.4,0671.2,30.8
2021-08-04T09:28:00Z,00000200,00000000,0000.89,0000.79,0000.41,-000.26,0000.50,0000.26,0000.83,0000.49,0000.42,17.3,23.8,05.2,03.5,0671.2,30.9
2021-08-04T09:29:00Z,00000200,00000000,0001.28,0000.59,0000.40,-000.05,0000.14,0000.20,0000.57,0000.86,0000.82,17.3,23.7,05.3,03.6,0671.2,30.8
2021-08-04T09:30:00Z,00000200,00000000,0001.21,0000.83,0000.28,0000.22,0000.25,-000.08,0000.44,0000.63,0000.24,17.3,23.7,05.4,03.6,0671.2,30.8
2021-08-04T09:31:00Z,00000200,00000000,0001.48,0000.69,0000.33,0000.08,0000.25,0000.00,0000.29,0000.46,0000.17,17.4,23.8,05.4,03.7,0671.2,30.8
2021-08-04T09:32:00Z,00000200,00000000,0001.19,0001.02,0000.82,-000.21,0000.26,0000.00,0000.54,0000.24,0000.66,17.5,23.8,05.5,03.7,0671.2,30.9
2021-08-04T09:33:00Z,00000200,00000000,0001.83,0000.70,0000.43,0000.54,0000.29,0000.13,0000.85,0000.74,0000.23,17.5,23.8,05.7,03.9,0671.2,30.9
2021-08-04T09:34:00Z,00000200,00000000,0001.46,0000.95,0000.68,0000.16,0000.42,0000.17,0000.43,0000.11,0000.30,17.5,23.8,05.9,04.0,0671.2,30.9
2021-08-04T09:35:00Z,00000200,00000000,0001.21,0000.58,0000.46,0000.53,0000.17,-000.15,0000.24,0000.71,0000.74,17.5,23.8,06.1,04.1,0671.2,30.9
2021-08-04T09:36:00Z,00000200,00000000,0001.34,0000.83,0000.33,0000.35,0000.08,0000.05,0000.61,0000.22,0000.26,17.5,23.8,06.0,04.1,0671.2,30.9
2021-08-04T09:37:00Z,00000200,00000000,0001.44,0000.84,0000.51,-000.48,0000.44,-000.03,0000.16,0000.37,0000.01,17.5,23.8,06.1,04.1,0671.2,30.9
2021-08-04T09:38:00Z,00000200,00000000,0001.30,0000.65,0000.62,-000.01,0000.32,0000.12,0000.45,0000.48,0000.33,17.5,23.8,06.0,04.1,0671.3,30.9
2021-08-04T09:39:00Z,00000200,00000000,0000.62,0000.76,0000.72,-000.15,0000.28,0000.19,0000.55,0000.30,0000.36,17.4,23.8,06.1,04.1,0671.3,30.9
2021-08-04T09:40:00Z,00000200,00000000,0000.70,0000.55,0000.60,0000.64,0000.10,0000.18,0000.37,0000.31,0000.30,17.4,23.8,06.1,04.1,0671.3,30.8
2021-08-04T09:41:00Z,00000200,00000000,0000.98,0000.93,0000.22,-000.19,0000.20,0000.13,0000.13,0000.27,0000.26,17.4,23.8,06.3,04.2,0671.3,30.8
2021-08-04T09:42:00Z,00000200,00000000,0001.66,0000.56,0000.37,0000.44,0000.26,-000.16,0000.83,0000.50,0000.38,17.4,23.8,06.4,04.3,0671.2,30.8
2021-08-04T09:43:00Z,00000200,00000000,0000.81,0000.57,0000.53,-000.18,0000.10,0000.31,0000.60,0000.71,0000.38,17.4,23.7,06.5,04.4,0671.2,30.8
2021-08-04T09:44:00Z,00000200,00000000,0001.00,0000.59,0000.40,0000.14,0000.43,0000.02,0000.75,0000.37,0000.49,17.4,23.8,06.6,04.5,0671.3,30.8
2021-08-04T09:45:00Z,00000200,00000000,0001.63,0000.75,0000.17,0000.57,0000.41,0000.35,0000.19,0001.03,0000.66,17.4,23.8,06.7,04.5,0671.2,30.8
2021-08-04T09:46:00Z,00000200,00000000,0001.67,0000.69,0000.54,0000.37,0000.21,0000.22,0000.44,0000.04,0000.20,17.5,23.8,06.6,04.5,0671.2,30.8
2021-08-04T09:47:00Z,00000200,00000000,0001.38,0000.77,0000.79,-000.14,0000.32,0000.11,0000.35,0000.46,0000.19,17.5,23.8,06.7,04.5,0671.2,30.9
2021-08-04T09:48:00Z,00000200,00000000,0001.24,0000.89,0000.55,0000.00,0000.34,0000.50,0000.70,0000.23,0000.50,17.5,23.8,06.7,04.6,0671.2,30.9
2021-08-04T09:49:00Z,00000200,00000000,0001.52,0000.63,0000.44,-000.40,-000.07,0000.19,0000.36,0000.41,0000.27,17.5,23.8,06.8,04.6,0671.2,30.9
2021-08-04T09:50:00Z,00000200,00000000,0000.62,0000.89,0000.60,-000.12,0000.09,0000.11,0000.44,0000.94,0000.55,17.6,23.8,07.0,04.7,0671.2,30.9
2021-08-04T09:51:00Z,00000200,00000000,0001.30,0000.51,0000.39,-000.07,0000.08,0000.21,0000.83,0000.39,0000.62,17.5,23.8,07.3,05.0,0671.2,30.9
2021-08-04T09:52:00Z,00000200,00000000,0001.08,0000.55,0000.63,0000.02,0000.19,0000.23,0001.00,0000.78,0000.84,17.5,23.8,07.5,05.1,0671.2,30.9
2021-08-04T09:53:00Z,00000200,00000000,0000.63,0000.59,0000.46,0000.53,0000.32,0000.15,0000.50,0000.16,0000.42,17.5,23.8,07.8,05.3,0671.2,30.8
2021-08-04T09:54:00Z,00000200,00000000,0001.50,0000.59,0000.05,0000.17,0000.25,-000.08,0000.41,0000.88,0000.60,17.5,23.8,08.0,05.4,0671.2,30.9
2021-08-04T09:55:00Z,00000200,00000000,0001.54,0000.44,0000.41,-000.36,0000.25,0000.26,0000.40,0000.51,0000.22,17.5,23.8,08.2,05.5,0671.2,30.9
2021-08-04T09:56:00Z,00000200,00000000,0001.08,0000.60,0000.38,0000.11,0000.34,0000.16,0000.39,0000.68,0000.32,17.5,23.8,08.2,05.6,0671.2,30.9
2021-08-04T09:57:00Z,00000200,40000000,,,,,,,-000.87,-001.51,-001.37,17.5,23.8,08.0,05.4,0671.3,30.9
2021-08-04T09:58:00Z,00000200,60000000,,,,,,,0000.32,0000.65,0000.69,17.2,23.9,07.5,04.9,0670.3,30.9
2021-08-04T09:59:00Z,00000200,20000000,,,,,,,0000.33,0000.13,0000.24,17.2,24.0,07.6,05.0,0670.2,30.8
